| time (UTC) | temp F | wind direction | speed knots | gust knots | rain 1hr in | rain 24hr in | rain mn in | humidity % | barometer mb |
| 20260509080534 | 68 | 65 | 5.2 | 9.6 | 0.00 | 0.23 | 0.00 | 93 | 1009.5 |
| 20260509080106 | 68 | 34 | 4.3 | 9.6 | 0.00 | 0.23 | 0.00 | 92 | 1009.4 |
| 20260509075535 | 68 | 77 | 6.1 | 9.6 | 0.00 | 0.23 | 0.00 | 92 | 1009.5 |
| 20260509075037 | 68 | 74 | 5.2 | 9.6 | 0.00 | 0.23 | 0.00 | 92 | 1009.7 |
| 20260509074545 | 68 | 110 | 4.3 | 7.8 | 0.00 | 0.23 | 0.00 | 92 | 1009.7 |
| 20260509074038 | 68 | 127 | 4.3 | 7.8 | 0.00 | 0.23 | 0.00 | 92 | 1009.8 |
| 20260509073534 | 68 | 110 | 4.3 | 7.0 | 0.00 | 0.23 | 0.00 | 92 | 1009.8 |
| 20260509073043 | 68 | 104 | 2.6 | 5.2 | 0.00 | 0.23 | 0.00 | 92 | 1010.1 |
| 20260509072534 | 68 | 101 | 2.6 | 5.2 | 0.00 | 0.23 | 0.00 | 91 | 1010.3 |
| 20260509072034 | 68 | 75 | 1.7 | 4.3 | 0.00 | 0.23 | 0.00 | 91 | 1010.4 |
| 20260509071539 | 68 | 61 | 1.7 | 4.3 | 0.00 | 0.23 | 0.00 | 91 | 1010.5 |
| 20260509071035 | 68 | 69 | 2.6 | 4.3 | 0.00 | 0.23 | 0.00 | 91 | 1010.5 |
| 20260509070535 | 68 | 87 | 1.7 | 4.3 | 0.00 | 0.23 | 0.00 | 91 | 1010.5 |
| 20260509070057 | 68 | 73 | 2.6 | 4.3 | 0.00 | 0.23 | 0.00 | 90 | 1010.7 |
| 20260509065534 | 68 | 81 | 0.9 | 4.3 | 0.00 | 0.23 | 0.00 | 90 | 1011.0 |
| 20260509065037 | 68 | 79 | 2.6 | 6.1 | 0.00 | 0.23 | 0.00 | 90 | 1011.0 |
| 20260509064546 | 68 | 52 | 0.9 | 6.1 | 0.00 | 0.23 | 0.00 | 90 | 1011.2 |
| 20260509064034 | 68 | 27 | 3.5 | 7.0 | 0.00 | 0.23 | 0.00 | 90 | 1011.3 |
| 20260509063536 | 68 | 43 | 2.6 | 7.8 | 0.00 | 0.23 | 0.00 | 91 | 1011.2 |
| 20260509063053 | 68 | 340 | 3.5 | 7.8 | 0.00 | 0.23 | 0.00 | 91 | 1011.2 |
| 20260509062535 | 68 | 12 | 3.5 | 6.1 | 0.00 | 0.23 | 0.00 | 91 | 1011.3 |
| 20260509062035 | 68 | 348 | 1.7 | 4.3 | 0.00 | 0.23 | 0.00 | 92 | 1011.1 |
| 20260509061544 | 68 | 0 | 0.0 | 7.8 | 0.00 | 0.23 | 0.00 | 91 | 1010.5 |
| 20260509061034 | 68 | 227 | 0.9 | 7.8 | 0.00 | 0.23 | 0.00 | 91 | 1010.3 |
| 20260509060536 | 68 | 143 | 3.5 | 7.8 | 0.00 | 0.23 | 0.00 | 92 | 1009.8 |
| 20260509060043 | 67 | 162 | 2.6 | 6.1 | 0.00 | 0.23 | 0.00 | 92 | 1009.8 |
| 20260509055535 | 67 | 136 | 3.5 | 6.1 | 0.00 | 0.23 | 0.00 | 93 | 1009.6 |
| 20260509055033 | 67 | 156 | 3.5 | 5.2 | 0.00 | 0.23 | 0.00 | 93 | 1009.8 |
| 20260509054552 | 66 | 135 | 0.9 | 3.5 | 0.00 | 0.23 | 0.00 | 93 | 1010.0 |
| 20260509054034 | 66 | 143 | 0.0 | 3.5 | 0.00 | 0.23 | 0.00 | 93 | 1010.1 |
| 20260509053535 | 66 | 158 | 1.7 | 3.5 | 0.00 | 0.23 | 0.00 | 93 | 1010.2 |
| 20260509053048 | 66 | 147 | 1.7 | 3.5 | 0.00 | 0.23 | 0.00 | 93 | 1010.2 |
| 20260509052534 | 66 | 163 | 0.9 | 2.6 | 0.00 | 0.23 | 0.00 | 93 | 1010.5 |
| 20260509052035 | 66 | 0 | 0.0 | 1.7 | 0.00 | 0.23 | 0.00 | 92 | 1010.7 |
| 20260509051547 | 67 | 0 | 0.0 | 2.6 | 0.00 | 0.23 | 0.00 | 92 | 1010.6 |
| 20260509051034 | 67 | 255 | 0.9 | 2.6 | 0.00 | 0.23 | 0.00 | 92 | 1011.0 |
| 20260509050534 | 67 | 233 | 1.7 | 2.6 | 0.00 | 0.23 | 0.00 | 91 | 1010.7 |
| 20260509050057 | 67 | 0 | 0.0 | 2.6 | 0.00 | 0.23 | 0.00 | 91 | 1011.0 |
| 20260509045534 | 67 | 273 | 0.0 | 2.6 | 0.00 | 0.23 | 0.23 | 91 | 1010.9 |
| 20260509045034 | 67 | 281 | 1.7 | 2.6 | 0.00 | 0.23 | 0.23 | 91 | 1010.8 |
| 20260509044538 | 68 | 257 | 0.9 | 1.7 | 0.00 | 0.23 | 0.23 | 90 | 1010.6 |
| 20260509044034 | 68 | 261 | 0.0 | 1.7 | 0.00 | 0.23 | 0.23 | 90 | 1010.6 |
| 20260509043535 | 68 | 221 | 0.0 | 0.9 | 0.00 | 0.23 | 0.23 | 90 | 1010.5 |
| 20260509043046 | 68 | 0 | 0.0 | 0.9 | 0.00 | 0.23 | 0.23 | 89 | 1010.8 |
| 20260509042534 | 68 | 0 | 0.0 | 1.7 | 0.00 | 0.23 | 0.23 | 89 | 1010.5 |
| 20260509042034 | 68 | 234 | 0.0 | 1.7 | 0.00 | 0.23 | 0.23 | 88 | 1010.4 |
| 20260509041550 | 68 | 148 | 0.9 | 1.7 | 0.00 | 0.23 | 0.23 | 88 | 1010.2 |
| 20260509041035 | 69 | 148 | 0.9 | 1.7 | 0.01 | 0.23 | 0.23 | 88 | 1010.1 |
| 20260509040534 | 69 | 0 | 0.0 | 0.9 | 0.01 | 0.23 | 0.23 | 88 | 1010.2 |
| 20260509040047 | 69 | 160 | 0.0 | 0.9 | 0.01 | 0.23 | 0.23 | 88 | 1010.3 |
| 20260509035535 | 69 | 129 | 0.0 | 5.2 | 0.01 | 0.23 | 0.23 | 88 | 1010.2 |
| 20260509035034 | 68 | 0 | 0.0 | 5.2 | 0.01 | 0.23 | 0.23 | 88 | 1010.2 |
| 20260509034547 | 69 | 106 | 1.7 | 5.2 | 0.01 | 0.23 | 0.23 | 88 | 1009.8 |
| 20260509034034 | 69 | 122 | 0.9 | 5.2 | 0.01 | 0.23 | 0.23 | 88 | 1010.0 |
| 20260509033535 | 69 | 121 | 0.0 | 7.0 | 0.01 | 0.23 | 0.23 | 88 | 1010.4 |
| 20260509033052 | 69 | 148 | 2.6 | 7.0 | 0.01 | 0.23 | 0.23 | 88 | 1010.1 |
| 20260509032535 | 69 | 188 | 3.5 | 6.1 | 0.01 | 0.23 | 0.23 | 87 | 1010.1 |
| 20260509032037 | 69 | 129 | 2.6 | 4.3 | 0.01 | 0.23 | 0.23 | 86 | 1010.0 |
| 20260509031549 | 70 | 110 | 0.9 | 4.3 | 0.01 | 0.23 | 0.23 | 85 | 1010.2 |
| 20260509031034 | 70 | 144 | 2.6 | 4.3 | 0.00 | 0.22 | 0.22 | 83 | 1009.9 |
| 20260509030534 | 71 | 103 | 1.7 | 3.5 | 0.00 | 0.22 | 0.22 | 82 | 1010.1 |
| 20260509030041 | 71 | 136 | 1.7 | 2.6 | 0.00 | 0.22 | 0.22 | 81 | 1010.2 |
| 20260509025537 | 71 | 70 | 0.9 | 2.6 | 0.00 | 0.22 | 0.22 | 80 | 1010.6 |
| 20260509025034 | 71 | 50 | 1.7 | 2.6 | 0.00 | 0.22 | 0.22 | 80 | 1010.9 |
| 20260509024542 | 71 | 0 | 0.0 | 0.0 | 0.00 | 0.22 | 0.22 | 80 | 1010.9 |
| 20260509024035 | 71 | 0 | 0.0 | 0.9 | 0.00 | 0.22 | 0.22 | 80 | 1010.8 |
| 20260509023535 | 71 | 0 | 0.0 | 0.9 | 0.00 | 0.22 | 0.22 | 80 | 1010.7 |
| 20260509023038 | 71 | 0 | 0.0 | 2.6 | 0.00 | 0.22 | 0.22 | 81 | 1010.5 |
| 20260509022536 | 71 | 0 | 0.0 | 2.6 | 0.00 | 0.22 | 0.22 | 81 | 1010.3 |
| 20260509022035 | 71 | 0 | 0.0 | 2.6 | 0.00 | 0.22 | 0.22 | 80 | 1010.2 |
| 20260509021547 | 71 | 0 | 0.0 | 2.6 | 0.00 | 0.22 | 0.22 | 80 | 1010.0 |
| 20260509021034 | 71 | 0 | 0.0 | 3.5 | 0.00 | 0.22 | 0.22 | 80 | 1009.8 |
| 20260509020534 | 71 | 101 | 0.9 | 4.3 | 0.00 | 0.22 | 0.22 | 80 | 1009.6 |
| 20260509020038 | 71 | 123 | 0.9 | 4.3 | 0.00 | 0.22 | 0.22 | 79 | 1009.5 |
| 20260509015534 | 71 | 108 | 0.9 | 6.1 | 0.00 | 0.22 | 0.22 | 79 | 1009.4 |
| 20260509015035 | 71 | 122 | 2.6 | 6.1 | 0.00 | 0.22 | 0.22 | 79 | 1009.3 |
| 20260509014543 | 71 | 150 | 2.6 | 6.1 | 0.00 | 0.22 | 0.22 | 78 | 1009.1 |
| 20260509014031 | 71 | 152 | 3.5 | 6.1 | 0.00 | 0.22 | 0.22 | 78 | 1009.1 |
| 20260509013534 | 71 | 131 | 3.5 | 7.0 | 0.00 | 0.22 | 0.22 | 78 | 1009.2 |
| 20260509013046 | 72 | 158 | 2.6 | 7.0 | 0.00 | 0.22 | 0.22 | 77 | 1009.2 |
| 20260509012534 | 72 | 145 | 4.3 | 7.0 | 0.00 | 0.22 | 0.22 | 77 | 1009.2 |
| 20260509012036 | 72 | 153 | 2.6 | 6.1 | 0.00 | 0.22 | 0.22 | 77 | 1009.1 |
| 20260509011602 | 72 | 158 | 2.6 | 7.0 | 0.00 | 0.22 | 0.22 | 76 | 1009.1 |
| 20260509011035 | 72 | 162 | 3.5 | 7.8 | 0.00 | 0.22 | 0.22 | 76 | 1009.1 |
| 20260509010535 | 73 | 131 | 3.5 | 7.8 | 0.00 | 0.22 | 0.22 | 75 | 1009.1 |
| 20260509010041 | 73 | 141 | 1.7 | 6.1 | 0.00 | 0.22 | 0.22 | 75 | 1009.2 |
| 20260509005535 | 73 | 149 | 1.7 | 6.1 | 0.00 | 0.22 | 0.22 | 75 | 1009.1 |
| 20260509005036 | 73 | 219 | 2.6 | 6.1 | 0.00 | 0.22 | 0.22 | 75 | 1009.1 |
| 20260509004554 | 73 | 153 | 3.5 | 6.1 | 0.00 | 0.22 | 0.22 | 75 | 1009.0 |
| 20260509004035 | 73 | 148 | 3.5 | 7.8 | 0.00 | 0.22 | 0.22 | 75 | 1009.0 |
| 20260509003535 | 73 | 117 | 2.6 | 7.8 | 0.00 | 0.22 | 0.22 | 75 | 1009.0 |
| 20260509003050 | 74 | 143 | 4.3 | 13.0 | 0.00 | 0.22 | 0.22 | 75 | 1008.8 |
| 20260509002534 | 74 | 155 | 7.0 | 13.0 | 0.00 | 0.22 | 0.22 | 74 | 1008.7 |
| 20260509002035 | 74 | 164 | 6.1 | 11.3 | 0.00 | 0.22 | 0.22 | 74 | 1008.7 |
| 20260509001546 | 74 | 146 | 5.2 | 12.2 | 0.00 | 0.22 | 0.22 | 74 | 1008.7 |
| 20260509001035 | 74 | 170 | 6.1 | 13.0 | 0.00 | 0.22 | 0.22 | 74 | 1008.6 |
| 20260509000536 | 74 | 147 | 7.0 | 14.8 | 0.00 | 0.22 | 0.22 | 74 | 1008.6 |
| 20260509000048 | 74 | 169 | 7.8 | 14.8 | 0.00 | 0.22 | 0.22 | 74 | 1008.6 |
| 20260508235534 | 75 | 155 | 7.0 | 13.9 | 0.00 | 0.22 | 0.22 | 73 | 1008.6 |
| 20260508235037 | 75 | 153 | 7.0 | 12.2 | 0.00 | 0.22 | 0.22 | 72 | 1008.6 |
| 20260508234542 | 75 | 137 | 7.8 | 12.2 | 0.00 | 0.22 | 0.22 | 72 | 1008.7 |
| 20260508234035 | 76 | 143 | 5.2 | 10.4 | 0.00 | 0.22 | 0.22 | 72 | 1008.7 |
| 20260508233535 | 76 | 129 | 5.2 | 10.4 | 0.00 | 0.22 | 0.22 | 71 | 1008.8 |
| 20260508233041 | 76 | 167 | 5.2 | 8.7 | 0.00 | 0.22 | 0.22 | 70 | 1008.7 |
| 20260508232536 | 77 | 143 | 5.2 | 7.8 | 0.00 | 0.22 | 0.22 | 70 | 1008.7 |
| 20260508232035 | 76 | 178 | 5.2 | 8.7 | 0.00 | 0.22 | 0.22 | 70 | 1008.8 |
| 20260508231545 | 77 | 146 | 5.2 | 12.2 | 0.00 | 0.22 | 0.22 | 69 | 1008.7 |
| 20260508231033 | 77 | 188 | 6.1 | 12.2 | 0.00 | 0.22 | 0.22 | 69 | 1008.9 |
| 20260508230535 | 78 | 173 | 5.2 | 12.2 | 0.00 | 0.22 | 0.22 | 67 | 1008.9 |
| 20260508230040 | 78 | 167 | 3.5 | 11.3 | 0.00 | 0.22 | 0.22 | 67 | 1009.0 |
| 20260508225533 | 78 | 220 | 5.2 | 11.3 | 0.00 | 0.22 | 0.22 | 67 | 1009.0 |
| 20260508225034 | 78 | 154 | 5.2 | 11.3 | 0.00 | 0.22 | 0.22 | 66 | 1008.9 |
| 20260508224602 | 78 | 200 | 5.2 | 10.4 | 0.00 | 0.22 | 0.22 | 66 | 1008.8 |
| 20260508224035 | 78 | 179 | 5.2 | 10.4 | 0.00 | 0.22 | 0.22 | 64 | 1008.9 |
| 20260508223536 | 78 | 188 | 5.2 | 9.6 | 0.00 | 0.22 | 0.22 | 65 | 1008.9 |
| 20260508223045 | 78 | 195 | 5.2 | 9.6 | 0.00 | 0.22 | 0.22 | 65 | 1008.9 |
| 20260508222535 | 78 | 110 | 5.2 | 11.3 | 0.00 | 0.22 | 0.22 | 65 | 1008.9 |
| 20260508222034 | 78 | 151 | 7.0 | 11.3 | 0.00 | 0.22 | 0.22 | 64 | 1008.9 |
| 20260508221552 | 79 | 158 | 4.3 | 10.4 | 0.00 | 0.22 | 0.22 | 62 | 1008.8 |
| 20260508221034 | 79 | 229 | 6.1 | 10.4 | 0.00 | 0.22 | 0.22 | 65 | 1008.7 |
| 20260508220536 | 79 | 156 | 6.1 | 12.2 | 0.00 | 0.22 | 0.22 | 63 | 1008.7 |
| 20260508220043 | 79 | 145 | 4.3 | 12.2 | 0.00 | 0.22 | 0.22 | 64 | 1008.6 |
| 20260508215534 | 79 | 203 | 7.0 | 12.2 | 0.00 | 0.22 | 0.22 | 64 | 1008.7 |
| 20260508215036 | 79 | 110 | 3.5 | 11.3 | 0.00 | 0.22 | 0.22 | 64 | 1008.7 |
| 20260508214549 | 79 | 160 | 6.1 | 11.3 | 0.00 | 0.22 | 0.22 | 65 | 1008.7 |
| 20260508214034 | 79 | 132 | 5.2 | 13.9 | 0.00 | 0.22 | 0.22 | 64 | 1008.8 |
| 20260508213534 | 79 | 145 | 7.0 | 13.9 | 0.00 | 0.22 | 0.22 | 64 | 1008.7 |
| 20260508213045 | 80 | 172 | 4.3 | 10.4 | 0.00 | 0.22 | 0.22 | 64 | 1008.9 |
| 20260508212533 | 80 | 155 | 5.2 | 13.0 | 0.00 | 0.22 | 0.22 | 64 | 1009.1 |
| 20260508212035 | 79 | 179 | 6.1 | 13.0 | 0.00 | 0.22 | 0.22 | 66 | 1009.3 |
| 20260508211548 | 79 | 155 | 6.1 | 13.0 | 0.00 | 0.22 | 0.22 | 65 | 1009.3 |
| 20260508211035 | 79 | 128 | 7.0 | 14.8 | 0.00 | 0.22 | 0.22 | 65 | 1009.4 |
| 20260508210533 | 79 | 165 | 7.0 | 14.8 | 0.00 | 0.22 | 0.22 | 65 | 1009.5 |
| 20260508210043 | 78 | 221 | 6.1 | 13.9 | 0.00 | 0.22 | 0.22 | 65 | 1009.7 |
| 20260508205536 | 78 | 166 | 7.0 | 12.2 | 0.00 | 0.22 | 0.22 | 65 | 1009.7 |
| 20260508205035 | 79 | 148 | 6.1 | 13.0 | 0.00 | 0.22 | 0.22 | 64 | 1010.0 |
| 20260508204548 | 78 | 167 | 6.1 | 14.8 | 0.00 | 0.22 | 0.22 | 63 | 1010.0 |
| 20260508204034 | 79 | 177 | 7.8 | 14.8 | 0.00 | 0.22 | 0.22 | 63 | 1010.1 |
| 20260508203534 | 79 | 195 | 5.2 | 13.9 | 0.00 | 0.22 | 0.22 | 62 | 1010.2 |
| 20260508203039 | 79 | 221 | 5.2 | 13.9 | 0.00 | 0.22 | 0.22 | 62 | 1010.1 |
| 20260508202532 | 79 | 98 | 3.5 | 11.3 | 0.00 | 0.22 | 0.22 | 62 | 1010.2 |
| 20260508202035 | 78 | 187 | 5.2 | 11.3 | 0.00 | 0.22 | 0.22 | 62 | 1010.4 |
| 20260508201545 | 79 | 161 | 2.6 | 9.6 | 0.00 | 0.22 | 0.22 | 62 | 1010.6 |
| 20260508201035 | 78 | 233 | 4.3 | 9.6 | 0.00 | 0.22 | 0.22 | 63 | 1010.7 |
| 20260508200535 | 77 | 185 | 3.5 | 9.6 | 0.00 | 0.22 | 0.22 | 63 | 1010.7 |
| 20260508200053 | 78 | 161 | 4.3 | 9.6 | 0.00 | 0.22 | 0.22 | 62 | 1010.7 |
| 20260508195535 | 78 | 155 | 3.5 | 7.0 | 0.00 | 0.22 | 0.22 | 63 | 1010.8 |
| 20260508195034 | 77 | 229 | 2.6 | 10.4 | 0.00 | 0.22 | 0.22 | 64 | 1010.9 |
| 20260508194544 | 76 | 192 | 4.3 | 10.4 | 0.00 | 0.22 | 0.22 | 65 | 1010.9 |
| 20260508194034 | 77 | 170 | 4.3 | 10.4 | 0.00 | 0.22 | 0.22 | 63 | 1011.0 |
| 20260508193535 | 77 | 225 | 6.1 | 10.4 | 0.00 | 0.22 | 0.22 | 63 | 1011.0 |
| 20260508193050 | 78 | 245 | 3.5 | 9.6 | 0.00 | 0.22 | 0.22 | 61 | 1010.9 |
| 20260508192535 | 78 | 199 | 3.5 | 9.6 | 0.00 | 0.22 | 0.22 | 61 | 1010.9 |
| 20260508192035 | 78 | 238 | 2.6 | 8.7 | 0.00 | 0.22 | 0.22 | 62 | 1010.9 |
| 20260508191545 | 78 | 129 | 3.5 | 10.4 | 0.00 | 0.22 | 0.22 | 61 | 1011.0 |
| 20260508191034 | 77 | 197 | 5.2 | 10.4 | 0.00 | 0.22 | 0.22 | 63 | 1011.0 |
| 20260508190535 | 78 | 125 | 5.2 | 10.4 | 0.00 | 0.22 | 0.22 | 61 | 1011.0 |
| 20260508190047 | 79 | 130 | 4.3 | 9.6 | 0.00 | 0.22 | 0.22 | 62 | 1011.1 |
| 20260508185538 | 78 | 176 | 4.3 | 8.7 | 0.00 | 0.22 | 0.22 | 59 | 1011.0 |
| 20260508185034 | 78 | 192 | 5.2 | 7.8 | 0.00 | 0.22 | 0.22 | 61 | 1011.2 |
| 20260508184546 | 78 | 0 | 2.6 | 7.8 | 0.00 | 0.22 | 0.22 | 61 | 1011.1 |
| 20260508184034 | 77 | 146 | 2.6 | 10.4 | 0.00 | 0.22 | 0.22 | 64 | 1011.2 |
| 20260508183535 | 76 | 217 | 6.1 | 10.4 | 0.00 | 0.22 | 0.22 | 64 | 1011.5 |
| 20260508183059 | 75 | 142 | 4.3 | 7.8 | 0.00 | 0.22 | 0.22 | 64 | 1011.5 |
| 20260508182535 | 75 | 140 | 4.3 | 7.8 | 0.00 | 0.22 | 0.22 | 66 | 1011.5 |
| 20260508182039 | 75 | 117 | 3.5 | 10.4 | 0.00 | 0.22 | 0.22 | 65 | 1011.7 |
| 20260508181550 | 74 | 120 | 5.2 | 10.4 | 0.00 | 0.22 | 0.22 | 68 | 1011.9 |
| 20260508181038 | 75 | 165 | 3.5 | 6.1 | 0.00 | 0.22 | 0.22 | 67 | 1011.9 |
| 20260508180535 | 74 | 148 | 2.6 | 9.6 | 0.00 | 0.22 | 0.22 | 65 | 1011.9 |
| 20260508180040 | 74 | 125 | 5.2 | 9.6 | 0.00 | 0.22 | 0.22 | 63 | 1012.0 |
| 20260508175535 | 74 | 210 | 1.7 | 7.0 | 0.00 | 0.22 | 0.22 | 64 | 1012.2 |
| 20260508175035 | 74 | 149 | 2.6 | 6.1 | 0.00 | 0.22 | 0.22 | 67 | 1012.3 |
| 20260508174545 | 74 | 87 | 3.5 | 6.1 | 0.00 | 0.22 | 0.22 | 66 | 1012.4 |
| 20260508174036 | 74 | 75 | 2.6 | 6.1 | 0.00 | 0.22 | 0.22 | 67 | 1012.5 |
| 20260508173535 | 73 | 156 | 2.6 | 7.0 | 0.00 | 0.22 | 0.22 | 67 | 1012.9 |
| 20260508173046 | 73 | 87 | 2.6 | 7.0 | 0.00 | 0.22 | 0.22 | 69 | 1012.9 |
| 20260508172532 | 72 | 142 | 3.5 | 7.8 | 0.00 | 0.22 | 0.22 | 71 | 1013.1 |
| 20260508172034 | 72 | 131 | 2.6 | 7.8 | 0.00 | 0.22 | 0.22 | 70 | 1013.2 |
| 20260508171550 | 71 | 122 | 5.2 | 7.8 | 0.00 | 0.22 | 0.22 | 72 | 1013.3 |
| 20260508171037 | 71 | 195 | 4.3 | 7.0 | 0.00 | 0.22 | 0.22 | 71 | 1013.4 |
| 20260508170534 | 71 | 112 | 3.5 | 7.0 | 0.00 | 0.22 | 0.22 | 74 | 1013.4 |
| 20260508170041 | 70 | 129 | 3.5 | 8.7 | 0.00 | 0.22 | 0.22 | 73 | 1013.5 |
| 20260508165534 | 70 | 231 | 3.5 | 8.7 | 0.00 | 0.22 | 0.22 | 74 | 1013.8 |
| 20260508165035 | 70 | 167 | 2.6 | 7.0 | 0.00 | 0.22 | 0.22 | 74 | 1013.9 |
| 20260508164541 | 70 | 262 | 1.7 | 6.1 | 0.00 | 0.22 | 0.22 | 76 | 1013.9 |
| 20260508164035 | 68 | 135 | 2.6 | 6.1 | 0.00 | 0.22 | 0.22 | 79 | 1014.0 |
| 20260508163531 | 68 | 138 | 2.6 | 6.1 | 0.00 | 0.22 | 0.22 | 79 | 1014.1 |
| 20260508163049 | 67 | 157 | 2.6 | 5.2 | 0.00 | 0.22 | 0.22 | 81 | 1014.1 |
| 20260508162534 | 67 | 177 | 2.6 | 5.2 | 0.00 | 0.22 | 0.22 | 80 | 1014.1 |
| 20260508162038 | 67 | 146 | 0.9 | 6.1 | 0.00 | 0.22 | 0.22 | 84 | 1014.1 |
| 20260508161547 | 66 | 179 | 0.9 | 6.1 | 0.00 | 0.22 | 0.22 | 84 | 1014.1 |
| 20260508161036 | 66 | 139 | 2.6 | 4.3 | 0.00 | 0.22 | 0.22 | 84 | 1014.2 |
| 20260508160534 | 65 | 169 | 0.9 | 6.1 | 0.00 | 0.22 | 0.22 | 85 | 1014.2 |
| 20260508160047 | 65 | 171 | 1.7 | 7.8 | 0.00 | 0.22 | 0.22 | 85 | 1014.3 |
| 20260508155535 | 65 | 172 | 3.5 | 7.8 | 0.02 | 0.22 | 0.22 | 85 | 1014.2 |
| 20260508155035 | 65 | 208 | 4.3 | 7.8 | 0.02 | 0.22 | 0.22 | 84 | 1014.4 |
| 20260508154542 | 65 | 201 | 2.6 | 6.1 | 0.02 | 0.22 | 0.22 | 85 | 1014.5 |
| 20260508154034 | 65 | 195 | 1.7 | 3.5 | 0.02 | 0.22 | 0.22 | 85 | 1014.5 |
| 20260508153532 | 65 | 148 | 0.9 | 2.6 | 0.03 | 0.22 | 0.22 | 86 | 1014.4 |
| 20260508153048 | 64 | 169 | 0.0 | 2.6 | 0.03 | 0.22 | 0.22 | 87 | 1014.5 |
| 20260508152537 | 64 | 158 | 0.9 | 2.6 | 0.03 | 0.22 | 0.22 | 87 | 1014.5 |
| 20260508152031 | 63 | 138 | 0.9 | 4.3 | 0.03 | 0.22 | 0.22 | 88 | 1014.5 |
| 20260508151546 | 63 | 0 | 0.9 | 5.2 | 0.03 | 0.22 | 0.22 | 87 | 1014.5 |
| 20260508151033 | 63 | 108 | 2.6 | 5.2 | 0.03 | 0.22 | 0.22 | 86 | 1014.5 |
| 20260508150533 | 63 | 139 | 3.5 | 7.8 | 0.03 | 0.22 | 0.22 | 85 | 1014.4 |
| 20260508145537 | 64 | 139 | 3.5 | 8.7 | 0.01 | 0.20 | 0.20 | 82 | 1014.8 |
| 20260508145034 | 64 | 215 | 5.2 | 9.6 | 0.01 | 0.20 | 0.20 | 83 | 1014.7 |
| 20260508144548 | 64 | 117 | 2.6 | 9.6 | 0.01 | 0.20 | 0.20 | 89 | 1014.5 |
| 20260508144034 | 64 | 146 | 4.3 | 8.7 | 0.00 | 0.19 | 0.19 | 89 | 1014.6 |
| 20260508143534 | 63 | 126 | 2.6 | 6.1 | 0.00 | 0.19 | 0.19 | 91 | 1014.6 |
| 20260508143047 | 63 | 134 | 2.6 | 4.3 | 0.00 | 0.19 | 0.19 | 91 | 1014.7 |
| 20260508142534 | 62 | 150 | 2.6 | 4.3 | 0.00 | 0.19 | 0.19 | 92 | 1014.7 |
| 20260508142038 | 62 | 124 | 1.7 | 2.6 | 0.00 | 0.19 | 0.19 | 92 | 1014.6 |
| 20260508141547 | 62 | 139 | 0.0 | 2.6 | 0.00 | 0.19 | 0.19 | 92 | 1015.0 |
| 20260508141035 | 62 | 0 | 0.0 | 2.6 | 0.00 | 0.19 | 0.19 | 93 | 1015.0 |
| 20260508140534 | 62 | 95 | 0.9 | 2.6 | 0.00 | 0.19 | 0.19 | 93 | 1015.1 |
| 20260508140046 | 61 | 0 | 0.9 | 1.7 | 0.00 | 0.19 | 0.19 | 93 | 1015.2 |
| 20260508135536 | 61 | 72 | 0.0 | 0.9 | 0.00 | 0.19 | 0.19 | 93 | 1015.1 |
| 20260508135033 | 61 | 106 | 0.0 | 1.7 | 0.00 | 0.19 | 0.19 | 94 | 1015.3 |
| 20260508134546 | 61 | 0 | 0.0 | 1.7 | 0.01 | 0.19 | 0.19 | 94 | 1015.4 |
| 20260508134035 | 61 | 0 | 0.9 | 5.2 | 0.01 | 0.19 | 0.19 | 94 | 1015.3 |
| 20260508133531 | 60 | 0 | 0.9 | 5.2 | 0.01 | 0.19 | 0.19 | 94 | 1015.0 |
| 20260508133044 | 60 | 144 | 1.7 | 3.5 | 0.01 | 0.19 | 0.19 | 94 | 1014.9 |
| 20260508132536 | 60 | 138 | 0.0 | 2.6 | 0.01 | 0.19 | 0.19 | 94 | 1015.0 |
| 20260508132034 | 60 | 110 | 0.9 | 2.6 | 0.01 | 0.19 | 0.19 | 94 | 1014.9 |
| 20260508131540 | 60 | 0 | 0.0 | 2.6 | 0.01 | 0.19 | 0.19 | 93 | 1015.3 |
| 20260508131035 | 60 | 0 | 0.9 | 3.5 | 0.01 | 0.19 | 0.19 | 94 | 1015.2 |
| 20260508130537 | 59 | 129 | 1.7 | 3.5 | 0.01 | 0.19 | 0.19 | 94 | 1014.7 |
| 20260508130038 | 59 | 115 | 0.0 | 3.5 | 0.01 | 0.19 | 0.19 | 94 | 1014.8 |
| 20260508125535 | 59 | 0 | 0.9 | 3.5 | 0.02 | 0.19 | 0.19 | 93 | 1015.0 |
| 20260508125035 | 59 | 152 | 2.6 | 3.5 | 0.03 | 0.19 | 0.19 | 93 | 1015.2 |
| 20260508124548 | 59 | 148 | 0.9 | 2.6 | 0.02 | 0.18 | 0.18 | 93 | 1015.3 |
| 20260508124035 | 58 | 124 | 0.0 | 1.7 | 0.02 | 0.18 | 0.18 | 93 | 1015.2 |
| 20260508123535 | 58 | 0 | 0.9 | 1.7 | 0.02 | 0.18 | 0.18 | 93 | 1015.4 |
| 20260508123039 | 58 | 0 | 0.0 | 2.6 | 0.02 | 0.18 | 0.18 | 93 | 1015.6 |
| 20260508122535 | 58 | 78 | 0.0 | 2.6 | 0.02 | 0.18 | 0.18 | 92 | 1015.4 |
| 20260508122031 | 58 | 277 | 0.9 | 1.7 | 0.02 | 0.18 | 0.18 | 92 | 1016.0 |
| 20260508121547 | 58 | 0 | 0.0 | 1.7 | 0.02 | 0.18 | 0.18 | 92 | 1015.3 |
| 20260508121034 | 58 | 0 | 0.0 | 2.6 | 0.02 | 0.18 | 0.18 | 92 | 1015.6 |
| 20260508120534 | 58 | 0 | 1.7 | 4.3 | 0.02 | 0.18 | 0.18 | 91 | 1015.6 |
| 20260508120048 | 58 | 226 | 0.9 | 4.3 | 0.02 | 0.18 | 0.18 | 91 | 1015.4 |
| 20260508115533 | 59 | 98 | 1.7 | 3.5 | 0.01 | 0.17 | 0.17 | 91 | 1014.9 |
| 20260508115034 | 59 | 248 | 1.7 | 3.5 | 0.00 | 0.16 | 0.16 | 90 | 1016.1 |
| 20260508114541 | 59 | 0 | 0.0 | 6.1 | 0.00 | 0.16 | 0.16 | 90 | 1015.3 |
| 20260508114035 | 59 | 0 | 0.9 | 7.8 | 0.00 | 0.16 | 0.16 | 91 | 1015.1 |
| 20260508113535 | 59 | 160 | 1.7 | 7.8 | 0.00 | 0.16 | 0.16 | 91 | 1014.6 |
| 20260508113123 | 59 | 140 | 4.3 | 7.8 | 0.01 | 0.16 | 0.16 | 92 | 1014.4 |
| 20260508112534 | 59 | 167 | 2.6 | 6.1 | 0.03 | 0.16 | 0.16 | 93 | 1014.1 |
| 20260508112034 | 59 | 172 | 3.5 | 7.8 | 0.09 | 0.16 | 0.16 | 93 | 1014.3 |
| 20260508111546 | 59 | 158 | 2.6 | 7.8 | 0.16 | 0.16 | 0.16 | 92 | 1014.2 |
| 20260508111030 | 59 | 171 | 3.5 | 7.0 | 0.16 | 0.16 | 0.16 | 93 | 1014.6 |
| 20260508110535 | 59 | 186 | 4.3 | 7.0 | 0.16 | 0.16 | 0.16 | 93 | 1014.9 |
| 20260508110045 | 59 | 193 | 1.7 | 5.2 | 0.16 | 0.16 | 0.16 | 92 | 1015.0 |
| 20260508105535 | 59 | 235 | 1.7 | 5.2 | 0.16 | 0.16 | 0.16 | 92 | 1015.2 |
| 20260508105034 | 59 | 209 | 3.5 | 7.8 | 0.16 | 0.16 | 0.16 | 92 | 1014.7 |
| 20260508104552 | 59 | 134 | 1.7 | 9.6 | 0.16 | 0.16 | 0.16 | 92 | 1014.1 |
| 20260508104035 | 59 | 191 | 3.5 | 9.6 | 0.16 | 0.16 | 0.16 | 92 | 1015.0 |
| 20260508103535 | 59 | 142 | 5.2 | 9.6 | 0.16 | 0.16 | 0.16 | 92 | 1014.7 |
| 20260508103042 | 59 | 247 | 2.6 | 7.0 | 0.15 | 0.15 | 0.15 | 93 | 1014.7 |
| 20260508102534 | 59 | 182 | 3.5 | 7.0 | 0.13 | 0.13 | 0.13 | 92 | 1014.4 |
| 20260508102035 | 59 | 148 | 0.9 | 2.6 | 0.06 | 0.06 | 0.06 | 92 | 1014.4 |
| 20260508101543 | 59 | 0 | 0.0 | 2.6 | 0.00 | 0.00 | 0.00 | 91 | 1014.6 |
| 20260508101031 | 59 | 100 | 1.7 | 2.6 | 0.00 | 0.00 | 0.00 | 91 | 1013.9 |
| 20260508100534 | 59 | 111 | 0.0 | 3.5 | 0.00 | 0.00 | 0.00 | 91 | 1014.2 |
| 20260508100042 | 59 | 0 | 0.0 | 3.5 | 0.00 | 0.00 | 0.00 | 91 | 1014.1 |
| 20260508095535 | 59 | 104 | 1.7 | 3.5 | 0.00 | 0.00 | 0.00 | 90 | 1013.8 |
| 20260508095036 | 59 | 60 | 0.0 | 0.9 | 0.00 | 0.00 | 0.00 | 90 | 1014.1 |
| 20260508094544 | 59 | 59 | 0.0 | 0.9 | 0.00 | 0.00 | 0.00 | 90 | 1014.2 |
| 20260508094035 | 59 | 0 | 0.0 | 0.9 | 0.00 | 0.00 | 0.00 | 89 | 1014.3 |
| 20260508093535 | 59 | 0 | 0.0 | 1.7 | 0.00 | 0.00 | 0.00 | 89 | 1014.1 |
| 20260508093043 | 60 | 0 | 0.0 | 1.7 | 0.00 | 0.00 | 0.00 | 88 | 1014.1 |
| 20260508092535 | 60 | 102 | 0.0 | 3.5 | 0.00 | 0.00 | 0.00 | 88 | 1013.9 |
| 20260508092034 | 60 | 117 | 0.0 | 3.5 | 0.00 | 0.00 | 0.00 | 88 | 1014.1 |
| 20260508091549 | 60 | 110 | 0.9 | 4.3 | 0.00 | 0.00 | 0.00 | 88 | 1014.2 |
| 20260508091035 | 60 | 180 | 0.0 | 4.3 | 0.00 | 0.00 | 0.00 | 88 | 1014.4 |
| 20260508090535 | 60 | 113 | 2.6 | 4.3 | 0.00 | 0.00 | 0.00 | 88 | 1014.3 |
| 20260508090046 | 60 | 158 | 0.0 | 1.7 | 0.00 | 0.00 | 0.00 | 88 | 1014.5 |
| 20260508085534 | 60 | 0 | 0.0 | 1.7 | 0.00 | 0.00 | 0.00 | 88 | 1014.4 |
| 20260508085034 | 60 | 124 | 0.0 | 1.7 | 0.00 | 0.00 | 0.00 | 88 | 1014.3 |
| 20260508084545 | 60 | 231 | 0.0 | 2.6 | 0.00 | 0.00 | 0.00 | 87 | 1014.8 |
| 20260508084035 | 60 | 0 | 0.0 | 6.1 | 0.00 | 0.00 | 0.00 | 87 | 1014.6 |
| 20260508083535 | 60 | 148 | 1.7 | 6.1 | 0.00 | 0.00 | 0.00 | 87 | 1014.5 |
| 20260508083039 | 60 | 152 | 3.5 | 6.1 | 0.00 | 0.00 | 0.00 | 87 | 1014.6 |
| 20260508082535 | 60 | 184 | 0.9 | 3.5 | 0.00 | 0.00 | 0.00 | 87 | 1015.1 |
| 20260508082034 | 60 | 140 | 0.0 | 1.7 | 0.00 | 0.00 | 0.00 | 87 | 1014.8 |
| 20260508081542 | 60 | 0 | 0.0 | 6.1 | 0.00 | 0.00 | 0.00 | 87 | 1014.8 |
| 20260508081035 | 60 | 279 | 0.9 | 6.1 | 0.00 | 0.00 | 0.00 | 87 | 1015.1 |